Satellite: FCAL
Catalog number: 29667
Epoch time:      08087.80124598
Element set:     864
Inclination:      051.6251 deg
RA of node:       026.1892 deg
Eccentricity:    0.0007591
Arg of perigee:   048.2947 deg
Mean anomaly:     311.8782 deg
Mean motion:   16.07632251 rev/day
Decay rate:    1.35782e-03 rev/day^2
Epoch rev:            7343
Checksum:              324

Satellite: FALCON
Catalog number: 30776
Epoch time:      08087.80042728
Element set:     277
Inclination:      035.4346 deg
RA of node:       287.0675 deg
Eccentricity:    0.0001764
Arg of perigee:   353.0798 deg
Mean anomaly:     006.9893 deg
Mean motion:   15.02926151 rev/day
Decay rate:       5.22e-06 rev/day^2
Epoch rev:            5789
Checksum:              320

Satellite: MAST
Catalog number: 31126
Epoch time:      08087.72985066
Element set:     288
Inclination:      098.0447 deg
RA of node:       155.3934 deg
Eccentricity:    0.0094034
Arg of perigee:   224.0002 deg
Mean anomaly:     135.3709 deg
Mean motion:   14.53408999 rev/day
Decay rate:       1.16e-06 rev/day^2
Epoch rev:            5018
Checksum:              300

Satellite: CAPE1
Catalog number: 31130
Epoch time:      08086.90952010
Element set:    0276
Inclination:      098.0449 deg
RA of node:       153.8027 deg
Eccentricity:    0.0102019
Arg of perigee:   228.6456 deg
Mean anomaly:     130.5914 deg
Mean motion:   14.51943023 rev/day
Decay rate:        2.3e-07 rev/day^2
Epoch rev:           04978
Checksum:              276

/EX





More information about the Keps mailing list